CDT,Max TemperatureF,Mean TemperatureF,Min TemperatureF,Max Dew PointF,MeanDew PointF,Min DewpointF,Max Humidity, Mean Humidity, Min Humidity, Max Sea Level PressureIn, Mean Sea Level PressureIn, Min Sea Level PressureIn, Max VisibilityMiles, Mean VisibilityMiles, Min VisibilityMiles, Max Wind SpeedMPH, Mean Wind SpeedMPH, Max Gust SpeedMPH,PrecipitationIn, CloudCover, Events, WindDirDegrees
2013-3-1,70,54,37,28,24,17,64,39,14,30.31,30.24,30.13,10,10,10,16,5,23,0.00,0,,328
2013-3-2,63,52,40,28,25,20,57,39,20,30.45,30.35,30.28,10,10,10,17,6,26,0.00,1,,342
2013-3-3,77,58,39,41,30,23,59,39,18,30.28,30.11,29.93,10,10,10,16,7,28,0.00,0,,185
2013-3-4,89,72,55,55,46,41,77,48,19,29.91,29.79,29.68,10,10,10,15,7,22,0.00,0,,187
2013-3-5,68,57,46,55,23,4,78,44,9,30.38,30.20,29.76,10,10,10,23,10,35,0.00,0,,353
2013-3-6,66,53,40,22,16,10,39,26,12,30.47,30.34,30.23,10,10,10,10,4,15,0.00,0,,88
2013-3-7,74,59,43,51,41,22,65,49,33,30.26,30.18,30.09,10,10,10,15,6,24,0.00,3,,161
2013-3-8,67,62,57,63,57,50,100,82,64,30.16,30.09,30.01,10,6,1,15,6,23,0.16,8,Rain,127
2013-3-9,73,68,62,65,62,57,93,81,68,30.02,29.82,29.66,10,8,2,21,11,32,0.02,8,Rain-Thunderstorm,163
2013-3-10,67,57,46,64,46,30,93,62,30,30.14,29.88,29.72,10,8,1,20,8,29,0.85,5,Rain-Thunderstorm,337
2013-3-11,69,54,38,35,26,15,82,49,15,30.20,30.11,30.01,10,10,10,14,5,22,0.00,0,,330
2013-3-12,80,61,42,40,31,26,62,39,16,30.24,30.12,30.07,10,10,10,13,4,20,0.00,0,,174
2013-3-13,77,63,48,40,34,30,54,38,21,30.44,30.34,30.28,10,10,10,12,5,19,0.00,0,,91
2013-3-14,79,65,50,52,45,41,86,57,28,30.38,30.30,30.21,10,10,10,14,6,24,0.00,0,,191
2013-3-15,83,68,52,55,47,37,89,55,20,30.23,30.12,29.99,10,10,9,15,8,26,0.00,1,,187
2013-3-16,86,73,59,60,55,48,84,57,29,29.99,29.86,29.72,10,10,10,21,10,32,0.00,3,,184
2013-3-17,84,75,66,64,60,56,84,63,42,29.82,29.74,29.64,10,10,10,15,7,25,0.00,6,,178
2013-3-18,90,76,62,64,54,41,93,56,19,29.93,29.79,29.70,10,9,5,14,7,22,0.00,3,,6
2013-3-19,85,68,51,61,51,44,77,59,40,30.01,29.93,29.84,10,10,9,21,6,30,T,1,Rain,103
2013-3-20,73,63,53,54,46,31,93,59,24,30.25,30.12,30.00,10,9,3,21,6,33,0.14,5,Rain-Thunderstorm,26
2013-3-21,80,67,54,59,51,38,78,61,44,30.02,29.81,29.61,10,10,10,17,8,28,0.00,6,,176
2013-3-22,85,70,55,65,61,45,93,69,44,29.78,29.68,29.62,10,8,2,14,6,24,0.00,7,,182
2013-3-23,80,66,52,58,50,45,84,65,45,29.81,29.72,29.58,10,9,5,10,5,17,T,5,,22
2013-3-24,61,52,43,56,31,19,87,54,21,30.19,30.03,29.70,10,9,5,23,9,40,0.00,1,,351
2013-3-25,61,50,38,24,19,13,52,34,15,30.41,30.31,30.19,10,10,10,13,6,23,0.00,0,,21
2013-3-26,66,50,34,26,19,15,59,37,15,30.51,30.40,30.31,10,10,10,9,3,14,0.00,0,,121
2013-3-27,71,56,40,47,36,22,64,47,30,30.34,30.25,30.16,10,10,10,15,7,25,0.00,3,,173
2013-3-28,76,66,55,56,53,48,83,68,53,30.21,30.16,30.11,10,10,10,14,7,23,0.00,6,,151
2013-3-29,80,70,60,59,56,53,90,66,42,30.19,30.13,30.04,10,10,6,14,7,22,0.00,7,,166
2013-3-30,86,76,65,62,60,57,87,62,37,30.09,30.01,29.87,10,10,10,15,7,24,0.00,5,,186
2013-3-31,80,73,65,64,62,58,87,72,56,29.97,29.91,29.85,10,10,9,13,4,20,T,4,Rain-Thunderstorm,145